Location: Bacea
(45.9500°N, 22.6667°E)
Time: 07:59:25
(UTC+00:00)

Envisat - Pass Details

Date: 05 February 2022
Orbit: 764 x 765 km, 98.2° (Epoch: 16 May)

Event Time Altitude Azimuth Distance (km) Brightness Sun altitude
Rises 16:03:37 0° 221° (SW) 3,218 7.4 -4.6°
Reaches altitude 10° 16:07:42 10° 254° (WSW) 2,300 7.4 -5.3°
Maximum altitude 16:09:22 12° 274° (W) 2,198 6.7 -5.5°
Drops below altitude 10° 16:11:03 10° 293° (WNW) 2,306 6.3 -5.8°
Sets 16:15:10 0° 326° (NW) 3,240 6.5 -6.5°
